Regional Weather Roundup
Issued by NWS

Home | Current Version | Previous Version | Graphics & Text | Print | Product List | Glossary On
Versions: 1 2 3 4 5 6 7 8 9 10 11 12 13 14 15 16 17 18 19 20 21 22 23 24 25 26 27 28 29 30 31 32 33 34 35 36 37 38 39 40 41 42 43 44 45 46 47 48 49 50
000
ASUS43 KMKX 230600
RWRWI

WISCONSIN REGIONAL WEATHER ROUNDUP
NATIONAL WEATHER SERVICE MILWAUKEE/SULLIVAN WI
100 AM CDT SUN JUL 23 2017

NOTE: "FAIR" INDICATES FEW OR NO CLOUDS BELOW 12,000 FEET WITH NO
SIGNIFICANT WEATHER AND/OR OBSTRUCTIONS TO VISIBILITY.

WIZ001-002-006>008-014>016-023>028-230700-
NORTHWEST WISCONSIN

CITY           SKY/WX    TMP DP  RH WIND       PRES   REMARKS
SUPERIOR ARPT  NOT AVBL
ASHLAND        CLOUDY    60  59  96 CALM      29.83F FOG
6HR MIN TEMP:  58; 6HR MAX TEMP:  70; 6HR PCP:  0.23;

HAYWARD        CLEAR     59  57  93 CALM      29.83F
6HR MIN TEMP:  58; 6HR MAX TEMP:  80; 6HR PCP:  0.10;

SIREN          MOCLDY    63  57  79 CALM      29.84S
CUMBERLAND     CLEAR     63  55  77 CALM      29.84F
RICE LAKE      CLEAR     65  57  76 CALM      29.85F
6HR MIN TEMP:  65; 6HR MAX TEMP:  83;

CHETEK         CLEAR     67  58  72 CALM      29.83F
LADYSMITH      CLEAR     64  63  94 W3        29.85F
EAU CLAIRE     NOT AVBL
MENOMONIE      CLEAR     70  62  73 CALM      29.83F
NEW RICHMOND   CLEAR     64  62  94 CALM      29.85S
OSCEOLA        PTCLDY    64  64 100 CALM      29.87S
$$

WIZ003>005-009-010-017-018-230700-
NORTH CENTRAL WISCONSIN

CITY           SKY/WX    TMP DP  RH WIND       PRES   REMARKS
MANITOWISH WTR MOCLDY    63  63 100 CALM      29.83F
ARBOR VITAE    PTCLDY    63  61  94 CALM      29.83F
WOODRUFF       PTCLDY    63  61  94 CALM      29.83F
RHINELANDER    MOCLDY    66  64  93 SW6       29.84R
6HR MIN TEMP:  59; 6HR MAX TEMP:  76;

EAGLE RIVER    LGT RAIN  65  65 100 W7        29.85R
LAND O LAKES   RAIN      65  64  98 CALM      29.86R
PHILLIPS       FOG       61  61 100 CALM      29.83F VSB 1/4
6HR MIN TEMP:  61; 6HR MAX TEMP:  75; 6HR PCP:  0.09;

TOMAHAWK         N/A     61  59  93 CALM      29.84S
MEDFORD        CLEAR     66  64  93 CALM      29.84S
MERRILL        PTCLDY    65  65 100 CALM      29.83S
6HR MIN TEMP:  65; 6HR MAX TEMP:  84;

$$

WIZ029-030-035-036-043>047-230700-
CENTRAL WISCONSIN

CITY           SKY/WX    TMP DP  RH WIND       PRES   REMARKS
WAUSAU         CLEAR     70  67  90 NW5       29.79F
6HR MIN TEMP:  70; 6HR MAX TEMP:  81;

MOSINEE        CLEAR     68  68 100 NW3       29.83S
MARSHFIELD     CLEAR     68  64  87 NW5       29.81F
6HR MIN TEMP:  67; 6HR MAX TEMP:  80;

STEVENS POINT  CLEAR     71  68  91 NW5       29.81F
WAUPACA        PTCLDY    73  71  92 W3        29.79S
WAUTOMA        PTCLDY    72  71  97 W6        29.80F
6HR MIN TEMP:  72; 6HR MAX TEMP:  83; 6HR PCP:  0.06;

WISC RAPIDS    CLEAR     70  67  90 W6        29.82F
6HR MIN TEMP:  69; 6HR MAX TEMP:  85; 6HR PCP: TRACE;

CAMP DOUGLAS   NOT AVBL
$$

WIZ011>013-019>022-031-037>040-048>050-230700-
NORTHEAST WISCONSIN

CITY           SKY/WX    TMP DP  RH WIND       PRES   REMARKS
ANTIGO         CLEAR     63  63 100 CALM      29.83S
SHAWANO        MOCLDY    71  68  92 NE6       29.79S
OCONTO         PTCLDY    65  64  97 W5        29.79S
STURGEON BAY   NOT AVBL
GREEN BAY      CLOUDY    70  70 100 E5        29.78S
6HR MIN TEMP:  68; 6HR MAX TEMP:  81; 6HR PCP:  1.04;

MANITOWOC      TSTM      66  63  88 CALM      29.81S
APPLETON       MOCLDY    70  68  94 E3        29.78S
CLINTONVILLE   CLOUDY    73  68  83 N3        29.78F
OSHKOSH        MOCLDY    72  70  93 SW3       29.77F
6HR MIN TEMP:  72; 6HR MAX TEMP:  77; 6HR PCP:  0.13;

$$

WIZ032>034-041-042-053>061-230700-
SOUTHWEST WISCONSIN

CITY           SKY/WX    TMP DP  RH WIND       PRES   REMARKS
LA CROSSE      CLEAR     70  68  93 CALM      29.83S
6HR MIN TEMP:  70; 6HR MAX TEMP:  85; 6HR PCP:  0.20;

SPARTA         CLEAR     63  62  99 CALM      29.84F
VIROQUA        CLEAR     67  67 100 W5        29.86R
BOSCOBEL       LGT RAIN  74  69  85 W5        29.82R
6HR MIN TEMP:  73; 6HR MAX TEMP:  84; 6HR PCP: TRACE;

PRAIRIE DU CHI MOCLDY    73  71  93 N8        29.84R
PLATTEVILLE    CLEAR     73  73 100 W3        29.84R
$$

WIZ056-057-062-063-064-067-068-230700-
SOUTH CENTRAL WISCONSIN

CITY           SKY/WX    TMP DP  RH WIND       PRES   REMARKS
REEDSBURG      CLOUDY    71  71 100 CALM      29.81F
BARABOO/DELLS  CLOUDY    71  68  92 SW6       29.81F
LONE ROCK      NOT AVBL
MINERAL POINT  PTCLDY    72  72 100 CALM      29.85R
MADISON        CLEAR     70  69  97 S3        29.81S
6HR MIN TEMP:  69; 6HR MAX TEMP:  83;

MIDDLETON      CLEAR     68  68 100 CALM      29.82F
WATERTOWN      PTCLDY    68  68 100 CALM      29.80S
MONROE         CLOUDY    73  70  88 CALM      29.82R
JANESVILLE     FOG       70  70 100 CALM      29.80S VSB 1/4
$$

WIZ051-052-058>065-066-070>072-230700-
SOUTHEAST WISCONSIN

CITY           SKY/WX    TMP DP  RH WIND       PRES   REMARKS
MILWAUKEE      PTCLDY    72  70  93 SW3       29.79F
6HR MIN TEMP:  72; 6HR MAX TEMP:  76;

WAUKESHA       CLEAR     68  68 100 CALM      29.81F
MILWAUKEE/TIMM PTCLDY    68  63  83 SW3       29.80F
RACINE         CLEAR     70  70 100 CALM      29.81S FOG
6HR MIN TEMP:  69; 6HR MAX TEMP:  75;

KENOSHA        CLEAR     70  68  93 SW5       29.79F
6HR MIN TEMP:  70; 6HR MAX TEMP:  77;

FOND DU LAC    MOCLDY    74  68  81 SW8       29.78F
6HR MIN TEMP:  72; 6HR MAX TEMP:  82;

SHEBOYGAN      CLOUDY    69  68  96 W7        29.79S
6HR MIN TEMP:  67; 6HR MAX TEMP:  76; 6HR PCP: TRACE;

WEST BEND      MOCLDY    68  68 100 CALM      29.80F FOG
JUNEAU         CLOUDY    71  68  93 CALM      29.81F
$$

LSZ147-162-230700-
LAKE SUPERIOR

STATION/POSITION TIME  TEMP    WIND        PRES    WAVE
                       AIR SEA DIR/SP/G            HT/PER
                 (UTC) (F)     (DEG/KT/KT) (MB)    (FT/S)
W MID LAKE BUOY  0450   50 48   20/  4/  6 1010.1R   2/ 5
DEVILS ISLAND    0500   55      70/  5/  7 1010.6F
PORT WING        0511   57      50/  7/ 10 1010.8R
SAXON HARBOR     0530   59     220/  3/  4 1009.8S
$$

LMZ867-665-643>646-230700-
LAKE MICHIGAN

STATION/POSITION TIME  TEMP    WIND        PRES    WAVE
                       AIR SEA DIR/SP/G            HT/PER
                 (UTC) (F)     (DEG/KT/KT) (MB)    (FT/S)
CHAMBERS ISLAND  0540   71     190/  4/ 10 1007.5F
S GREEN BAY BUOY 0530   67 73  160/  8/ 10 1008.7F
N MID LAKE BUOY  0450   69 69  180/  8/ 10 1008.3F   0
NORTHPORT PIER   0540   68     160/  4/  6 1008.1F
KEWAUNEE LAKESHO 0530   65     300/  3/  5 1008.4F
SHEBOYGAN LAKESH 0500   70     200/  5/  6 1008.5R
PORT WASHINGTON  0540   70     270/  1/  2 1009.8R
ATWATER BUOY     0409   70 69  180/  6/  6 1009.2F
MILWAUKEE LAKESH 0540   72     220/  6/  6   N/A
S MID LAKE BUOY  0450   70 70   60/  2/  2 1009.0F   0
KENOSHA   LAKESH 0500   72     210/  5/  6 1008.8
$$

TC  - TEMPERATURE IN CELSIUS
VSB - VISIBILITY IN STATUTE MILES
WCI - WIND CHILL INDEX
HX  - HEAT INDEX




USA.gov is the U.S. government's official web portal to all federal, state and local government web resources and services.